Location: Caoba
(9.7667°N, 67.4833°W)
Time: 21:01:52
(UTC+00:00)

GOES 2 Rocket - Pass Details

Date: 07 December 2024
Orbit: 569 x 1662 km, 28.4° (Epoch: 14 January)

Event Time Altitude Azimuth Distance (km) Brightness Sun altitude
Rises 00:26:41 0° 222° (SW) 4,582 8.4 -32.6°
Reaches altitude 10° 00:30:25 10° 214° (SW) 3,445 7.4 -33.4°
Enters shadow 00:37:03 32° 166° (SSE) 1,892 5.4 -34.9°
